РПИ Шымкент

РПИ Шимкент является структурным подразделением дивизиона VATRUS сети VATSIM.

РПИ осуществляет свою деятельность в границах Жамбыльской, Туркестанской и Кызылординской областей Республики Казахстан.

Схемы и аэронавигационную информацию можно получить на сайте   Казаэронавигация

Средства связи ОВД:

UAII_CTR - Шымкент Контроль - 132.700

RU-CEN_FSS - Азия Радар  - 132.850 (РПИ: UACN, UAAA, UAII, UATT, UTAA, UCFM, UTAT, UTDD, UTTR,  UCFO,  UTSD, UTAV,  UTAK)

Руководство

Evgeny Vygornitsky*

Куратор

Dmitriy Bannov

Помощник куратора по Казахстану
Инструкторы РПИ
Dmitriy Bannov (Instructor)
Evgeny Vygornitsky (Supervisor)
Vitaliy Alekseyev (Instructor)
Входит в состав
Центральная Азия

Диспетчеры РПИ

Диспетчер Рейтинг Допуски *

Аэропорты РПИ

ICAO Город Название Погода
UAII Шымкент Шымкент UAII 100730Z 29002MPS 8000 NSC M06/M12 Q1034 NOSIG RMK QFE738/0984